Time,TemperatureF,DewpointF,PressureIn,WindDirection,WindDirectionDegrees,WindSpeedMPH,WindSpeedGustMPH,Humidity,HourlyPrecipIn,Conditions,Clouds,dailyrainin,SolarRadiationWatts/m^2,SoftwareType,DateUTC
2013-05-27 00:03:00,60.5,48.3,30.25,North,3,0.0,1.0,64,0.00,,,0.00,0,Wunderground v.1.15,2013-05-27 04:03:00,
2013-05-27 00:04:00,60.5,48.7,30.25,North,3,0.0,1.0,65,0.00,,,0.00,0,Wunderground v.1.15,2013-05-27 04:04:00,
2013-05-27 00:08:00,60.4,48.6,30.24,North,3,0.0,1.0,65,0.00,,,0.00,0,Wunderground v.1.15,2013-05-27 04:08:00,
2013-05-27 00:11:00,60.3,48.5,30.25,North,3,0.0,0.0,65,0.00,,,0.00,0,Wunderground v.1.15,2013-05-27 04:11:00,
2013-05-27 00:16:00,60.3,48.9,30.25,North,3,0.0,0.0,66,0.00,,,0.00,0,Wunderground v.1.15,2013-05-27 04:16:00,
2013-05-27 00:17:00,60.2,48.8,30.25,North,3,0.0,0.0,66,0.00,,,0.00,0,Wunderground v.1.15,2013-05-27 04:17:00,
2013-05-27 00:22:00,60.2,48.8,30.25,North,3,0.0,0.0,66,0.00,,,0.00,0,Wunderground v.1.15,2013-05-27 04:22:00,
2013-05-27 00:27:00,60.2,48.8,30.25,North,3,0.0,0.0,66,0.00,,,0.00,0,Wunderground v.1.15,2013-05-27 04:27:00,
2013-05-27 00:33:00,60.1,48.7,30.25,North,3,0.0,0.0,66,0.00,,,0.00,0,Wunderground v.1.15,2013-05-27 04:33:00,
2013-05-27 00:38:00,60.0,48.6,30.25,North,3,0.0,0.0,66,0.00,,,0.00,0,Wunderground v.1.15,2013-05-27 04:38:00,
2013-05-27 00:43:00,60.0,48.6,30.25,North,3,0.0,0.0,66,0.00,,,0.00,0,Wunderground v.1.15,2013-05-27 04:43:00,
2013-05-27 00:49:00,59.9,48.9,30.25,North,3,0.0,0.0,67,0.00,,,0.00,0,Wunderground v.1.15,2013-05-27 04:49:00,
2013-05-27 00:55:00,59.9,48.5,30.25,North,3,1.0,1.0,66,0.00,,,0.00,0,Wunderground v.1.15,2013-05-27 04:55:00,
2013-05-27 01:00:00,59.9,48.9,30.24,North,3,0.0,0.0,67,0.00,,,0.00,0,Wunderground v.1.15,2013-05-27 05:00:00,
2013-05-27 01:06:00,59.9,48.9,30.24,North,3,0.0,1.0,67,0.00,,,0.00,0,Wunderground v.1.15,2013-05-27 05:06:00,
2013-05-27 01:11:00,59.8,48.8,30.24,North,3,0.0,0.0,67,0.00,,,0.00,0,Wunderground v.1.15,2013-05-27 05:11:00,
2013-05-27 01:17:00,59.6,48.6,30.24,North,3,1.0,1.0,67,0.00,,,0.00,0,Wunderground v.1.15,2013-05-27 05:17:00,
2013-05-27 01:22:00,59.6,48.2,30.24,North,3,0.0,0.0,66,0.00,,,0.00,0,Wunderground v.1.15,2013-05-27 05:22:00,
2013-05-27 01:28:00,59.6,48.2,30.23,North,3,1.0,1.0,66,0.00,,,0.00,0,Wunderground v.1.15,2013-05-27 05:28:00,
2013-05-27 01:34:00,59.6,48.2,30.24,North,3,1.0,1.0,66,0.00,,,0.00,0,Wunderground v.1.15,2013-05-27 05:34:00,
2013-05-27 01:40:00,59.6,48.6,30.24,North,3,0.0,0.0,67,0.00,,,0.00,0,Wunderground v.1.15,2013-05-27 05:40:00,
2013-05-27 01:45:00,59.5,48.5,30.24,North,3,1.0,1.0,67,0.00,,,0.00,0,Wunderground v.1.15,2013-05-27 05:45:00,
2013-05-27 01:50:00,59.5,48.9,30.24,North,3,0.0,0.0,68,0.00,,,0.00,0,Wunderground v.1.15,2013-05-27 05:50:00,
2013-05-27 01:56:00,59.4,48.8,30.24,North,3,0.0,0.0,68,0.00,,,0.00,0,Wunderground v.1.15,2013-05-27 05:56:00,
2013-05-27 02:01:00,59.3,48.7,30.24,North,3,0.0,0.0,68,0.00,,,0.00,0,Wunderground v.1.15,2013-05-27 06:01:00,
2013-05-27 02:06:00,59.1,48.5,30.23,North,3,0.0,0.0,68,0.00,,,0.00,0,Wunderground v.1.15,2013-05-27 06:06:00,
2013-05-27 02:11:00,58.9,48.7,30.23,North,3,0.0,0.0,69,0.00,,,0.00,0,Wunderground v.1.15,2013-05-27 06:11:00,
2013-05-27 02:16:00,58.8,48.6,30.23,North,3,0.0,0.0,69,0.00,,,0.00,0,Wunderground v.1.15,2013-05-27 06:16:00,
2013-05-27 03:44:00,58.0,49.4,30.18,ENE,78,1.0,1.0,73,0.00,,,0.00,0,Wunderground v.1.15,2013-05-27 07:44:00,
2013-05-27 03:49:00,58.0,49.0,30.18,ENE,78,1.0,3.0,72,0.00,,,0.00,0,Wunderground v.1.15,2013-05-27 07:49:00,
2013-05-27 03:54:00,58.0,48.6,30.18,ENE,78,1.0,2.0,71,0.00,,,0.00,0,Wunderground v.1.15,2013-05-27 07:54:00,
2013-05-27 04:00:00,58.0,49.0,30.19,ENE,78,1.0,3.0,72,0.00,,,0.00,0,Wunderground v.1.15,2013-05-27 08:00:00,
2013-05-27 04:05:00,58.0,48.6,30.19,ENE,78,0.0,3.0,71,0.00,,,0.00,0,Wunderground v.1.15,2013-05-27 08:05:00,
2013-05-27 04:10:00,58.0,48.6,30.19,ENE,78,1.0,2.0,71,0.00,,,0.00,0,Wunderground v.1.15,2013-05-27 08:10:00,
2013-05-27 04:15:00,58.0,48.6,30.19,ENE,78,1.0,2.0,71,0.00,,,0.00,0,Wunderground v.1.15,2013-05-27 08:15:00,
2013-05-27 04:20:00,57.9,48.9,30.19,ENE,78,0.0,0.0,72,0.00,,,0.00,0,Wunderground v.1.15,2013-05-27 08:20:00,
2013-05-27 04:25:00,57.9,48.9,30.19,ENE,78,0.0,2.0,72,0.00,,,0.00,0,Wunderground v.1.15,2013-05-27 08:25:00,
2013-05-27 04:30:00,57.9,48.9,30.19,ENE,78,0.0,1.0,72,0.00,,,0.00,0,Wunderground v.1.15,2013-05-27 08:30:00,
2013-05-27 04:35:00,57.8,48.8,30.19,ENE,78,0.0,1.0,72,0.00,,,0.00,0,Wunderground v.1.15,2013-05-27 08:35:00,
2013-05-27 04:40:00,57.7,49.1,30.19,ENE,78,2.0,2.0,73,0.00,,,0.00,0,Wunderground v.1.15,2013-05-27 08:40:00,
2013-05-27 04:45:00,57.6,49.0,30.19,ENE,78,0.0,2.0,73,0.00,,,0.00,0,Wunderground v.1.15,2013-05-27 08:45:00,
2013-05-27 04:51:00,57.5,48.9,30.19,ENE,78,1.0,1.0,73,0.00,,,0.00,0,Wunderground v.1.15,2013-05-27 08:51:00,
2013-05-27 04:56:00,57.4,49.2,30.19,ENE,78,0.0,2.0,74,0.00,,,0.00,0,Wunderground v.1.15,2013-05-27 08:56:00,
2013-05-27 05:01:00,57.4,48.8,30.19,ENE,78,1.0,2.0,73,0.00,,,0.00,0,Wunderground v.1.15,2013-05-27 09:01:00,
2013-05-27 05:06:00,57.4,48.8,30.19,ENE,78,1.0,2.0,73,0.00,,,0.00,0,Wunderground v.1.15,2013-05-27 09:06:00,
2013-05-27 05:11:00,57.4,48.8,30.18,ENE,78,0.0,1.0,73,0.00,,,0.00,0,Wunderground v.1.15,2013-05-27 09:11:00,
2013-05-27 05:16:00,57.4,48.8,30.18,ENE,77,1.0,2.0,73,0.00,,,0.00,0,Wunderground v.1.15,2013-05-27 09:16:00,
2013-05-27 05:21:00,57.3,48.3,30.18,ENE,78,2.0,3.0,72,0.00,,,0.00,0,Wunderground v.1.15,2013-05-27 09:21:00,
2013-05-27 05:26:00,57.2,48.6,30.19,ENE,78,1.0,3.0,73,0.00,,,0.00,0,Wunderground v.1.15,2013-05-27 09:26:00,
2013-05-27 05:32:00,57.2,48.3,30.18,ENE,78,0.0,3.0,72,0.00,,,0.00,0,Wunderground v.1.15,2013-05-27 09:32:00,
2013-05-27 05:37:00,57.2,48.6,30.19,ENE,78,0.0,3.0,73,0.00,,,0.00,0,Wunderground v.1.15,2013-05-27 09:37:00,
2013-05-27 05:42:00,57.1,48.5,30.18,ENE,77,0.0,2.0,73,0.00,,,0.00,0,Wunderground v.1.15,2013-05-27 09:42:00,
2013-05-27 05:47:00,57.1,48.2,30.19,ENE,77,2.0,2.0,72,0.00,,,0.00,0,Wunderground v.1.15,2013-05-27 09:47:00,
2013-05-27 05:52:00,57.1,48.2,30.19,ENE,77,0.0,1.0,72,0.00,,,0.00,0,Wunderground v.1.15,2013-05-27 09:52:00,
2013-05-27 05:57:00,57.1,48.2,30.19,ENE,77,1.0,3.0,72,0.00,,,0.00,0,Wunderground v.1.15,2013-05-27 09:57:00,
2013-05-27 06:02:00,57.1,47.8,30.19,ENE,77,1.0,3.0,71,0.00,,,0.00,0,Wunderground v.1.15,2013-05-27 10:02:00,
2013-05-27 06:07:00,57.1,47.8,30.19,ENE,77,3.0,3.0,71,0.00,,,0.00,0,Wunderground v.1.15,2013-05-27 10:07:00,
2013-05-27 06:12:00,57.1,47.8,30.19,ENE,77,2.0,3.0,71,0.00,,,0.00,0,Wunderground v.1.15,2013-05-27 10:12:00,
2013-05-27 06:17:00,57.1,47.8,30.19,ENE,62,1.0,4.0,71,0.00,,,0.00,0,Wunderground v.1.15,2013-05-27 10:17:00,
2013-05-27 06:22:00,57.1,47.8,30.19,ENE,63,2.0,4.0,71,0.00,,,0.00,0,Wunderground v.1.15,2013-05-27 10:22:00,
2013-05-27 06:27:00,57.2,48.3,30.19,ENE,63,1.0,4.0,72,0.00,,,0.00,0,Wunderground v.1.15,2013-05-27 10:27:00,
2013-05-27 06:32:00,57.2,48.3,30.20,ENE,63,1.0,2.0,72,0.00,,,0.00,0,Wunderground v.1.15,2013-05-27 10:32:00,
2013-05-27 06:37:00,57.3,48.3,30.20,ENE,63,0.0,2.0,72,0.00,,,0.00,0,Wunderground v.1.15,2013-05-27 10:37:00,
2013-05-27 06:42:00,57.3,48.0,30.20,ENE,63,1.0,2.0,71,0.00,,,0.00,0,Wunderground v.1.15,2013-05-27 10:42:00,
2013-05-27 06:47:00,57.3,48.0,30.20,ENE,63,1.0,2.0,71,0.00,,,0.00,0,Wunderground v.1.15,2013-05-27 10:47:00,
2013-05-27 06:52:00,57.3,48.0,30.20,ENE,63,0.0,2.0,71,0.00,,,0.00,0,Wunderground v.1.15,2013-05-27 10:52:00,
2013-05-27 06:57:00,57.2,47.9,30.21,ENE,63,2.0,3.0,71,0.00,,,0.00,0,Wunderground v.1.15,2013-05-27 10:57:00,
2013-05-27 07:02:00,57.3,48.3,30.21,ENE,63,0.0,2.0,72,0.00,,,0.00,0,Wunderground v.1.15,2013-05-27 11:02:00,
2013-05-27 07:07:00,57.4,48.1,30.22,ENE,63,0.0,2.0,71,0.00,,,0.00,0,Wunderground v.1.15,2013-05-27 11:07:00,
2013-05-27 07:12:00,57.5,48.5,30.22,ENE,63,0.0,0.0,72,0.00,,,0.00,0,Wunderground v.1.15,2013-05-27 11:12:00,
2013-05-27 07:17:00,57.7,49.1,30.22,ENE,63,0.0,2.0,73,0.00,,,0.00,0,Wunderground v.1.15,2013-05-27 11:17:00,
2013-05-27 07:22:00,57.8,48.8,30.22,ENE,63,1.0,2.0,72,0.00,,,0.00,0,Wunderground v.1.15,2013-05-27 11:22:00,
2013-05-27 07:27:00,57.9,48.9,30.22,ENE,63,0.0,2.0,72,0.00,,,0.00,0,Wunderground v.1.15,2013-05-27 11:27:00,
2013-05-27 07:32:00,58.0,49.0,30.21,ENE,63,2.0,2.0,72,0.00,,,0.00,0,Wunderground v.1.15,2013-05-27 11:32:00,
2013-05-27 07:37:00,58.1,48.7,30.22,ENE,63,0.0,3.0,71,0.00,,,0.00,0,Wunderground v.1.15,2013-05-27 11:37:00,
2013-05-27 07:42:00,58.2,48.8,30.22,ENE,63,0.0,2.0,71,0.00,,,0.00,0,Wunderground v.1.15,2013-05-27 11:42:00,
2013-05-27 07:47:00,58.3,48.9,30.22,ENE,63,0.0,2.0,71,0.00,,,0.00,0,Wunderground v.1.15,2013-05-27 11:47:00,
2013-05-27 07:52:00,58.4,49.0,30.22,ENE,63,0.0,1.0,71,0.00,,,0.00,0,Wunderground v.1.15,2013-05-27 11:52:00,
2013-05-27 07:57:00,58.2,48.5,30.22,ENE,63,1.0,3.0,70,0.00,,,0.00,0,Wunderground v.1.15,2013-05-27 11:57:00,
2013-05-27 08:02:00,58.3,49.3,30.21,ENE,63,0.0,2.0,72,0.00,,,0.00,0,Wunderground v.1.15,2013-05-27 12:02:00,
2013-05-27 08:07:00,58.1,49.9,30.21,ENE,63,0.0,2.0,74,0.00,,,0.00,0,Wunderground v.1.15,2013-05-27 12:07:00,
2013-05-27 08:12:00,57.9,50.0,30.22,ENE,63,1.0,1.0,75,0.00,,,0.00,0,Wunderground v.1.15,2013-05-27 12:12:00,
2013-05-27 08:18:00,57.8,49.9,30.22,ENE,63,1.0,2.0,75,0.00,,,0.00,0,Wunderground v.1.15,2013-05-27 12:18:00,
2013-05-27 08:23:00,57.7,49.8,30.22,ENE,63,2.0,3.0,75,0.00,,,0.00,0,Wunderground v.1.15,2013-05-27 12:23:00,
2013-05-27 08:28:00,57.6,49.7,30.22,ENE,63,2.0,3.0,75,0.00,,,0.00,0,Wunderground v.1.15,2013-05-27 12:28:00,
2013-05-27 08:33:00,57.6,50.1,30.22,ENE,63,1.0,2.0,76,0.00,,,0.00,0,Wunderground v.1.15,2013-05-27 12:33:00,
2013-05-27 08:38:00,57.8,50.6,30.22,ENE,63,2.0,3.0,77,0.00,,,0.00,0,Wunderground v.1.15,2013-05-27 12:38:00,
2013-05-27 08:43:00,57.9,50.4,30.21,ENE,63,2.0,2.0,76,0.00,,,0.00,0,Wunderground v.1.15,2013-05-27 12:43:00,
2013-05-27 08:48:00,58.0,49.8,30.21,ENE,69,3.0,4.0,74,0.00,,,0.00,0,Wunderground v.1.15,2013-05-27 12:48:00,
2013-05-27 08:53:00,58.0,50.1,30.21,NE,54,2.0,5.0,75,0.00,,,0.00,0,Wunderground v.1.15,2013-05-27 12:53:00,
2013-05-27 08:58:00,58.1,50.6,30.20,ENE,72,3.0,5.0,76,0.00,,,0.00,0,Wunderground v.1.15,2013-05-27 12:58:00,
2013-05-27 09:03:00,58.5,49.9,30.21,East,80,2.0,5.0,73,0.00,,,0.00,0,Wunderground v.1.15,2013-05-27 13:03:00,
2013-05-27 09:09:00,59.0,51.4,30.20,ENE,71,2.0,5.0,76,0.00,,,0.00,0,Wunderground v.1.15,2013-05-27 13:09:00,
2013-05-27 09:14:00,59.6,51.7,30.20,ENE,70,2.0,3.0,75,0.00,,,0.00,0,Wunderground v.1.15,2013-05-27 13:14:00,
2013-05-27 09:19:00,60.2,51.9,30.20,ENE,71,1.0,3.0,74,0.00,,,0.00,0,Wunderground v.1.15,2013-05-27 13:19:00,
2013-05-27 09:24:00,60.8,51.3,30.20,East,84,2.0,5.0,71,0.00,,,0.00,0,Wunderground v.1.15,2013-05-27 13:24:00,
2013-05-27 09:29:00,60.9,51.0,30.19,ENE,68,1.0,5.0,70,0.00,,,0.00,0,Wunderground v.1.15,2013-05-27 13:29:00,
2013-05-27 09:34:00,61.3,50.6,30.19,NE,39,2.0,4.0,68,0.00,,,0.00,0,Wunderground v.1.15,2013-05-27 13:34:00,
2013-05-27 09:39:00,61.3,50.2,30.19,ENE,64,1.0,1.0,67,0.00,,,0.00,0,Wunderground v.1.15,2013-05-27 13:39:00,
2013-05-27 09:44:00,61.7,51.0,30.18,East,81,3.0,4.0,68,0.00,,,0.00,0,Wunderground v.1.15,2013-05-27 13:44:00,
2013-05-27 09:49:00,62.1,51.8,30.18,East,81,0.0,1.0,69,0.00,,,0.00,0,Wunderground v.1.15,2013-05-27 13:49:00,
2013-05-27 09:54:00,62.4,51.3,30.18,East,81,1.0,2.0,67,0.00,,,0.00,0,Wunderground v.1.15,2013-05-27 13:54:00,
2013-05-27 09:59:00,62.4,50.9,30.18,ENE,78,3.0,4.0,66,0.00,,,0.00,0,Wunderground v.1.15,2013-05-27 13:59:00,
2013-05-27 10:05:00,62.4,51.3,30.18,North,0,2.0,5.0,67,0.00,,,0.00,0,Wunderground v.1.15,2013-05-27 14:05:00,
2013-05-27 10:10:00,62.8,52.1,30.18,NNE,19,3.0,3.0,68,0.00,,,0.00,0,Wunderground v.1.15,2013-05-27 14:10:00,
2013-05-27 10:15:00,63.0,51.9,30.18,NNE,13,1.0,4.0,67,0.00,,,0.00,0,Wunderground v.1.15,2013-05-27 14:15:00,
2013-05-27 10:21:00,63.1,51.6,30.18,North,3,3.0,4.0,66,0.00,,,0.00,0,Wunderground v.1.15,2013-05-27 14:21:00,
2013-05-27 10:26:00,63.2,52.1,30.18,East,80,2.0,4.0,67,0.00,,,0.00,0,Wunderground v.1.15,2013-05-27 14:26:00,
2013-05-27 10:31:00,63.2,51.6,30.18,NNW,329,3.0,5.0,66,0.00,,,0.00,0,Wunderground v.1.15,2013-05-27 14:31:00,
2013-05-27 10:36:00,63.2,51.6,30.18,NNE,29,3.0,5.0,66,0.00,,,0.00,0,Wunderground v.1.15,2013-05-27 14:36:00,
2013-05-27 10:42:00,63.5,51.9,30.18,East,81,2.0,3.0,66,0.00,,,0.00,0,Wunderground v.1.15,2013-05-27 14:42:00,
2013-05-27 10:47:00,63.7,51.7,30.18,NNE,12,2.0,6.0,65,0.00,,,0.00,0,Wunderground v.1.15,2013-05-27 14:47:00,
2013-05-27 10:52:00,63.9,51.9,30.18,ENE,60,2.0,4.0,65,0.00,,,0.00,0,Wunderground v.1.15,2013-05-27 14:52:00,
2013-05-27 10:57:00,64.5,52.9,30.18,East,79,2.0,5.0,66,0.00,,,0.00,0,Wunderground v.1.15,2013-05-27 14:57:00,
2013-05-27 11:02:00,65.0,52.5,30.18,East,81,4.0,4.0,64,0.00,,,0.00,0,Wunderground v.1.15,2013-05-27 15:02:00,
2013-05-27 11:07:00,65.2,52.7,30.18,NNE,20,3.0,4.0,64,0.00,,,0.00,0,Wunderground v.1.15,2013-05-27 15:07:00,
2013-05-27 11:12:00,65.2,52.7,30.18,NNE,23,1.0,4.0,64,0.00,,,0.00,0,Wunderground v.1.15,2013-05-27 15:12:00,
2013-05-27 11:17:00,65.3,52.8,30.18,NNE,15,2.0,5.0,64,0.00,,,0.00,0,Wunderground v.1.15,2013-05-27 15:17:00,
2013-05-27 11:22:00,65.2,53.1,30.18,East,84,3.0,4.0,65,0.00,,,0.00,0,Wunderground v.1.15,2013-05-27 15:22:00,
2013-05-27 11:27:00,65.6,53.5,30.18,ENE,61,3.0,6.0,65,0.00,,,0.00,0,Wunderground v.1.15,2013-05-27 15:27:00,
2013-05-27 11:32:00,65.7,52.8,30.18,ENE,70,4.0,5.0,63,0.00,,,0.00,0,Wunderground v.1.15,2013-05-27 15:32:00,
2013-05-27 11:37:00,65.9,53.4,30.18,ENE,62,2.0,5.0,64,0.00,,,0.00,0,Wunderground v.1.15,2013-05-27 15:37:00,
2013-05-27 11:42:00,66.5,53.1,30.17,ENE,57,4.0,5.0,62,0.00,,,0.00,0,Wunderground v.1.15,2013-05-27 15:42:00,
2013-05-27 11:47:00,66.8,53.4,30.17,NNE,30,3.0,5.0,62,0.00,,,0.00,0,Wunderground v.1.15,2013-05-27 15:47:00,
2013-05-27 11:52:00,67.3,53.4,30.17,NNE,21,3.0,5.0,61,0.00,,,0.00,0,Wunderground v.1.15,2013-05-27 15:52:00,
2013-05-27 11:57:00,67.6,53.7,30.17,NE,37,4.0,5.0,61,0.00,,,0.00,0,Wunderground v.1.15,2013-05-27 15:57:00,
2013-05-27 12:02:00,68.3,54.3,30.16,NE,49,1.0,4.0,61,0.00,,,0.00,0,Wunderground v.1.15,2013-05-27 16:02:00,
2013-05-27 12:07:00,68.4,54.0,30.17,NE,47,2.0,5.0,60,0.00,,,0.00,0,Wunderground v.1.15,2013-05-27 16:07:00,
2013-05-27 12:12:00,69.0,54.5,30.16,North,355,2.0,4.0,60,0.00,,,0.00,0,Wunderground v.1.15,2013-05-27 16:12:00,
2013-05-27 12:17:00,69.3,54.4,30.16,NE,46,3.0,5.0,59,0.00,,,0.00,0,Wunderground v.1.15,2013-05-27 16:17:00,
2013-05-27 12:22:00,69.6,55.1,30.16,NE,51,2.0,3.0,60,0.00,,,0.00,0,Wunderground v.1.15,2013-05-27 16:22:00,
2013-05-27 12:27:00,70.1,55.1,30.16,NE,51,5.0,5.0,59,0.00,,,0.00,0,Wunderground v.1.15,2013-05-27 16:27:00,
2013-05-27 12:33:00,70.1,55.1,30.15,North,1,3.0,6.0,59,0.00,,,0.00,0,Wunderground v.1.15,2013-05-27 16:33:00,
2013-05-27 12:38:00,70.3,55.3,30.15,ENE,58,2.0,6.0,59,0.00,,,0.00,0,Wunderground v.1.15,2013-05-27 16:38:00,
2013-05-27 12:43:00,70.9,54.9,30.15,East,81,1.0,5.0,57,0.00,,,0.00,0,Wunderground v.1.15,2013-05-27 16:43:00,
2013-05-27 12:48:00,71.0,55.0,30.15,NNE,24,3.0,6.0,57,0.00,,,0.00,0,Wunderground v.1.15,2013-05-27 16:48:00,
2013-05-27 12:53:00,71.5,55.5,30.15,ENE,78,4.0,6.0,57,0.00,,,0.00,0,Wunderground v.1.15,2013-05-27 16:53:00,
2013-05-27 12:58:00,72.2,55.6,30.14,North,5,1.0,6.0,56,0.00,,,0.00,0,Wunderground v.1.15,2013-05-27 16:58:00,
2013-05-27 13:03:00,72.4,55.8,30.14,North,3,5.0,6.0,56,0.00,,,0.00,0,Wunderground v.1.15,2013-05-27 17:03:00,
2013-05-27 13:08:00,72.2,56.1,30.14,NE,41,5.0,6.0,57,0.00,,,0.00,0,Wunderground v.1.15,2013-05-27 17:08:00,
2013-05-27 13:13:00,72.2,56.1,30.14,ENE,78,6.0,7.0,57,0.00,,,0.00,0,Wunderground v.1.15,2013-05-27 17:13:00,
2013-05-27 13:18:00,72.7,56.6,30.13,NE,48,3.0,7.0,57,0.00,,,0.00,0,Wunderground v.1.15,2013-05-27 17:18:00,
2013-05-27 13:23:00,73.9,56.7,30.13,ENE,57,4.0,6.0,55,0.00,,,0.00,0,Wunderground v.1.15,2013-05-27 17:23:00,
2013-05-27 13:28:00,74.4,57.2,30.13,ENE,67,5.0,7.0,55,0.00,,,0.00,0,Wunderground v.1.15,2013-05-27 17:28:00,
2013-05-27 13:34:00,74.4,57.2,30.12,ENE,63,4.0,6.0,55,0.00,,,0.00,0,Wunderground v.1.15,2013-05-27 17:34:00,
2013-05-27 13:39:00,75.1,57.3,30.12,NE,37,2.0,6.0,54,0.00,,,0.00,0,Wunderground v.1.15,2013-05-27 17:39:00,
2013-05-27 13:44:00,75.1,57.8,30.11,North,8,3.0,5.0,55,0.00,,,0.00,0,Wunderground v.1.15,2013-05-27 17:44:00,
2013-05-27 13:49:00,75.0,57.7,30.11,NNE,29,2.0,7.0,55,0.00,,,0.00,0,Wunderground v.1.15,2013-05-27 17:49:00,
2013-05-27 13:54:00,75.4,57.6,30.11,NE,45,1.0,5.0,54,0.00,,,0.00,0,Wunderground v.1.15,2013-05-27 17:54:00,
2013-05-27 13:59:00,76.0,58.2,30.11,ENE,59,4.0,5.0,54,0.00,,,0.00,0,Wunderground v.1.15,2013-05-27 17:59:00,
2013-05-27 14:04:00,76.7,58.3,30.10,ENE,68,1.0,5.0,53,0.00,,,0.00,0,Wunderground v.1.15,2013-05-27 18:04:00,
2013-05-27 14:09:00,76.8,58.4,30.10,North,10,1.0,1.0,53,0.00,,,0.00,0,Wunderground v.1.15,2013-05-27 18:09:00,
2013-05-27 14:14:00,77.5,60.6,30.10,North,2,3.0,5.0,56,0.00,,,0.00,0,Wunderground v.1.15,2013-05-27 18:14:00,
2013-05-27 14:20:00,77.9,58.3,30.09,ENE,62,4.0,4.0,51,0.00,,,0.00,0,Wunderground v.1.15,2013-05-27 18:20:00,
2013-05-27 14:25:00,77.7,58.7,30.09,NNE,22,6.0,6.0,52,0.00,,,0.00,0,Wunderground v.1.15,2013-05-27 18:25:00,
2013-05-27 14:30:00,77.8,58.8,30.09,North,8,3.0,3.0,52,0.00,,,0.00,0,Wunderground v.1.15,2013-05-27 18:30:00,
2013-05-27 14:35:00,78.0,59.5,30.08,North,5,3.0,6.0,53,0.00,,,0.00,0,Wunderground v.1.15,2013-05-27 18:35:00,
2013-05-27 14:41:00,78.3,58.7,30.08,NNW,338,1.0,5.0,51,0.00,,,0.00,0,Wunderground v.1.15,2013-05-27 18:41:00,
2013-05-27 14:46:00,78.5,59.4,30.09,NNW,331,4.0,7.0,52,0.00,,,0.00,0,Wunderground v.1.15,2013-05-27 18:46:00,
2013-05-27 14:51:00,79.0,59.9,30.08,NNE,21,2.0,2.0,52,0.00,,,0.00,0,Wunderground v.1.15,2013-05-27 18:51:00,
2013-05-27 14:56:00,80.1,60.3,30.08,NW,317,0.0,3.0,51,0.00,,,0.00,0,Wunderground v.1.15,2013-05-27 18:56:00,
2013-05-27 15:01:00,80.5,59.0,30.08,NNW,327,2.0,3.0,48,0.00,,,0.00,0,Wunderground v.1.15,2013-05-27 19:01:00,
2013-05-27 15:06:00,80.3,59.4,30.08,NE,40,3.0,4.0,49,0.00,,,0.00,0,Wunderground v.1.15,2013-05-27 19:06:00,
2013-05-27 15:11:00,80.5,59.0,30.08,NNW,335,2.0,2.0,48,0.00,,,0.00,0,Wunderground v.1.15,2013-05-27 19:11:00,
2013-05-27 15:16:00,80.4,59.5,30.08,NW,326,3.0,4.0,49,0.00,,,0.00,0,Wunderground v.1.15,2013-05-27 19:16:00,
2013-05-27 15:21:00,80.8,58.7,30.08,ENE,68,1.0,6.0,47,0.00,,,0.00,0,Wunderground v.1.15,2013-05-27 19:21:00,
2013-05-27 15:26:00,81.5,60.5,30.08,ENE,78,1.0,6.0,49,0.00,,,0.00,0,Wunderground v.1.15,2013-05-27 19:26:00,
2013-05-27 15:31:00,82.3,60.1,30.07,NNE,21,2.0,4.0,47,0.00,,,0.00,0,Wunderground v.1.15,2013-05-27 19:31:00,
2013-05-27 15:36:00,82.5,60.8,30.07,NW,319,3.0,8.0,48,0.00,,,0.00,0,Wunderground v.1.15,2013-05-27 19:36:00,
2013-05-27 15:41:00,83.1,60.2,30.07,West,279,5.0,5.0,46,0.00,,,0.00,0,Wunderground v.1.15,2013-05-27 19:41:00,
2013-05-27 15:46:00,83.8,60.8,30.07,SSE,159,1.0,5.0,46,0.00,,,0.00,0,Wunderground v.1.15,2013-05-27 19:46:00,
2013-05-27 15:51:00,84.1,60.5,30.07,WNW,282,2.0,2.0,45,0.00,,,0.00,0,Wunderground v.1.15,2013-05-27 19:51:00,
2013-05-27 15:56:00,84.3,60.6,30.06,South,169,1.0,6.0,45,0.00,,,0.00,0,Wunderground v.1.15,2013-05-27 19:56:00,
2013-05-27 16:01:00,84.6,60.3,30.06,SSE,163,4.0,5.0,44,0.00,,,0.00,0,Wunderground v.1.15,2013-05-27 20:01:00,
2013-05-27 16:06:00,84.4,60.1,30.06,SSE,157,0.0,5.0,44,0.00,,,0.00,0,Wunderground v.1.15,2013-05-27 20:06:00,
2013-05-27 16:11:00,84.9,61.2,30.05,SSE,158,1.0,4.0,45,0.00,,,0.00,0,Wunderground v.1.15,2013-05-27 20:11:00,
2013-05-27 16:16:00,85.3,61.6,30.06,SE,143,2.0,10.0,45,0.00,,,0.00,0,Wunderground v.1.15,2013-05-27 20:16:00,
2013-05-27 16:21:00,85.2,60.8,30.05,SSE,162,1.0,3.0,44,0.00,,,0.00,0,Wunderground v.1.15,2013-05-27 20:21:00,
2013-05-27 16:26:00,85.3,61.6,30.04,SSE,164,5.0,6.0,45,0.00,,,0.00,0,Wunderground v.1.15,2013-05-27 20:26:00,
2013-05-27 16:31:00,85.0,60.6,30.05,South,187,1.0,8.0,44,0.00,,,0.00,0,Wunderground v.1.15,2013-05-27 20:31:00,
2013-05-27 16:36:00,85.3,60.9,30.04,SW,235,1.0,8.0,44,0.00,,,0.00,0,Wunderground v.1.15,2013-05-27 20:36:00,
2013-05-27 16:41:00,85.7,61.3,30.04,SSE,152,3.0,3.0,44,0.00,,,0.00,0,Wunderground v.1.15,2013-05-27 20:41:00,
2013-05-27 16:46:00,85.8,61.4,30.04,SSE,155,0.0,8.0,44,0.00,,,0.00,0,Wunderground v.1.15,2013-05-27 20:46:00,
2013-05-27 16:51:00,86.0,60.2,30.03,SSE,168,0.0,5.0,42,0.00,,,0.00,0,Wunderground v.1.15,2013-05-27 20:51:00,
2013-05-27 16:57:00,85.7,60.0,30.04,SE,145,1.0,6.0,42,0.00,,,0.00,0,Wunderground v.1.15,2013-05-27 20:57:00,
2013-05-27 17:02:00,85.3,60.9,30.04,South,178,2.0,6.0,44,0.00,,,0.00,0,Wunderground v.1.15,2013-05-27 21:02:00,
2013-05-27 17:07:00,85.1,60.7,30.04,South,186,4.0,6.0,44,0.00,,,0.00,0,Wunderground v.1.15,2013-05-27 21:07:00,
2013-05-27 17:12:00,84.8,61.1,30.04,SSE,154,3.0,4.0,45,0.00,,,0.00,0,Wunderground v.1.15,2013-05-27 21:12:00,
2013-05-27 17:17:00,84.6,60.9,30.04,South,176,4.0,5.0,45,0.00,,,0.00,0,Wunderground v.1.15,2013-05-27 21:17:00,
2013-05-27 17:22:00,84.6,61.5,30.04,SSE,167,2.0,5.0,46,0.00,,,0.00,0,Wunderground v.1.15,2013-05-27 21:22:00,
2013-05-27 17:27:00,84.8,61.1,30.04,SSE,153,1.0,6.0,45,0.00,,,0.00,0,Wunderground v.1.15,2013-05-27 21:27:00,
2013-05-27 17:32:00,85.5,62.4,30.03,SSE,153,1.0,4.0,46,0.00,,,0.00,0,Wunderground v.1.15,2013-05-27 21:32:00,
2013-05-27 17:37:00,85.8,62.0,30.03,South,184,3.0,4.0,45,0.00,,,0.00,0,Wunderground v.1.15,2013-05-27 21:37:00,
2013-05-27 17:42:00,85.6,61.2,30.03,SSE,155,1.0,4.0,44,0.00,,,0.00,0,Wunderground v.1.15,2013-05-27 21:42:00,
2013-05-27 17:47:00,85.3,61.6,30.03,SE,126,2.0,4.0,45,0.00,,,0.00,0,Wunderground v.1.15,2013-05-27 21:47:00,
2013-05-27 17:52:00,85.2,62.1,30.03,SSE,149,2.0,4.0,46,0.00,,,0.00,0,Wunderground v.1.15,2013-05-27 21:52:00,
2013-05-27 17:57:00,84.7,61.0,30.03,SSE,164,2.0,4.0,45,0.00,,,0.00,0,Wunderground v.1.15,2013-05-27 21:57:00,
2013-05-27 18:02:00,84.5,62.1,30.02,SSE,163,3.0,3.0,47,0.00,,,0.00,0,Wunderground v.1.15,2013-05-27 22:02:00,
2013-05-27 18:07:00,84.6,61.5,30.02,SSE,163,3.0,4.0,46,0.00,,,0.00,0,Wunderground v.1.15,2013-05-27 22:07:00,
2013-05-27 18:12:00,84.9,61.8,30.02,SSE,149,2.0,6.0,46,0.00,,,0.00,0,Wunderground v.1.15,2013-05-27 22:12:00,
2013-05-27 18:17:00,85.1,61.4,30.02,SSE,149,2.0,7.0,45,0.00,,,0.00,0,Wunderground v.1.15,2013-05-27 22:17:00,
2013-05-27 18:22:00,84.7,61.6,30.02,SSE,152,1.0,5.0,46,0.00,,,0.00,0,Wunderground v.1.15,2013-05-27 22:22:00,
2013-05-27 18:27:00,84.8,61.7,30.01,SSE,152,0.0,5.0,46,0.00,,,0.00,0,Wunderground v.1.15,2013-05-27 22:27:00,
2013-05-27 18:33:00,84.9,61.8,30.01,SSE,151,0.0,3.0,46,0.00,,,0.00,0,Wunderground v.1.15,2013-05-27 22:33:00,
2013-05-27 18:38:00,84.8,61.7,30.02,ENE,62,2.0,3.0,46,0.00,,,0.00,0,Wunderground v.1.15,2013-05-27 22:38:00,
2013-05-27 18:43:00,84.6,61.5,30.01,SSE,161,1.0,2.0,46,0.00,,,0.00,0,Wunderground v.1.15,2013-05-27 22:43:00,
2013-05-27 18:48:00,84.1,61.7,30.01,SSE,162,2.0,3.0,47,0.00,,,0.00,0,Wunderground v.1.15,2013-05-27 22:48:00,
2013-05-27 18:53:00,83.6,61.8,30.01,SSW,206,3.0,3.0,48,0.00,,,0.00,0,Wunderground v.1.15,2013-05-27 22:53:00,
2013-05-27 18:58:00,83.0,61.3,30.02,SSE,153,0.0,4.0,48,0.00,,,0.00,0,Wunderground v.1.15,2013-05-27 22:58:00,
2013-05-27 19:03:00,82.6,61.5,30.01,SE,139,0.0,2.0,49,0.00,,,0.00,0,Wunderground v.1.15,2013-05-27 23:03:00,
2013-05-27 19:08:00,82.3,61.8,30.01,SE,143,3.0,5.0,50,0.00,,,0.00,0,Wunderground v.1.15,2013-05-27 23:08:00,
2013-05-27 19:13:00,81.9,60.9,30.01,SE,146,1.0,3.0,49,0.00,,,0.00,0,Wunderground v.1.15,2013-05-27 23:13:00,
2013-05-27 19:18:00,81.6,60.6,30.01,SE,138,2.0,2.0,49,0.00,,,0.00,0,Wunderground v.1.15,2013-05-27 23:18:00,
2013-05-27 19:23:00,81.5,61.6,30.01,SE,140,0.0,2.0,51,0.00,,,0.00,0,Wunderground v.1.15,2013-05-27 23:23:00,
2013-05-27 19:28:00,81.3,60.9,30.01,SE,141,2.0,2.0,50,0.00,,,0.00,0,Wunderground v.1.15,2013-05-27 23:28:00,
2013-05-27 19:33:00,81.2,61.4,30.01,SE,143,0.0,3.0,51,0.00,,,0.00,0,Wunderground v.1.15,2013-05-27 23:33:00,
2013-05-27 19:38:00,81.0,61.2,30.01,SE,143,1.0,1.0,51,0.00,,,0.00,0,Wunderground v.1.15,2013-05-27 23:38:00,
2013-05-27 19:43:00,80.9,61.1,30.01,SE,143,1.0,3.0,51,0.00,,,0.00,0,Wunderground v.1.15,2013-05-27 23:43:00,
2013-05-27 19:48:00,80.8,61.5,30.01,SE,143,0.0,0.0,52,0.00,,,0.00,0,Wunderground v.1.15,2013-05-27 23:48:00,
2013-05-27 19:53:00,80.6,61.3,30.01,SE,144,0.0,0.0,52,0.00,,,0.00,0,Wunderground v.1.15,2013-05-27 23:53:00,
2013-05-27 19:58:00,80.5,61.8,30.01,SE,143,0.0,0.0,53,0.00,,,0.00,0,Wunderground v.1.15,2013-05-27 23:58:00,
2013-05-27 20:03:00,80.3,62.1,30.01,SE,143,0.0,1.0,54,0.00,,,0.00,0,Wunderground v.1.15,2013-05-28 00:03:00,
2013-05-27 20:08:00,80.0,62.4,30.01,SE,140,0.0,0.0,55,0.00,,,0.00,0,Wunderground v.1.15,2013-05-28 00:08:00,
2013-05-27 20:13:00,79.8,62.2,30.02,SE,135,0.0,0.0,55,0.00,,,0.00,0,Wunderground v.1.15,2013-05-28 00:13:00,
2013-05-27 20:19:00,79.4,61.8,30.02,SE,136,0.0,0.0,55,0.00,,,0.00,0,Wunderground v.1.15,2013-05-28 00:19:00,
2013-05-27 20:24:00,79.1,62.1,30.02,SE,143,0.0,1.0,56,0.00,,,0.00,0,Wunderground v.1.15,2013-05-28 00:24:00,
2013-05-27 20:29:00,78.6,62.6,30.01,SE,135,0.0,0.0,58,0.00,,,0.00,0,Wunderground v.1.15,2013-05-28 00:29:00,
2013-05-27 20:35:00,78.1,63.1,30.01,SE,138,1.0,1.0,60,0.00,,,0.00,0,Wunderground v.1.15,2013-05-28 00:35:00,
2013-05-27 20:40:00,77.6,63.1,30.01,ENE,67,0.0,1.0,61,0.00,,,0.00,0,Wunderground v.1.15,2013-05-28 00:40:00,
2013-05-27 20:45:00,77.1,63.1,30.01,SE,134,0.0,1.0,62,0.00,,,0.00,0,Wunderground v.1.15,2013-05-28 00:45:00,
2013-05-27 20:50:00,76.7,63.2,30.01,SE,135,0.0,1.0,63,0.00,,,0.00,0,Wunderground v.1.15,2013-05-28 00:50:00,
2013-05-27 20:55:00,76.5,63.0,30.01,SE,135,0.0,2.0,63,0.00,,,0.00,0,Wunderground v.1.15,2013-05-28 00:55:00,
2013-05-27 21:01:00,76.2,62.7,30.01,SE,131,0.0,0.0,63,0.00,,,0.00,0,Wunderground v.1.15,2013-05-28 01:01:00,
2013-05-27 21:06:00,76.0,62.9,30.01,SE,128,0.0,1.0,64,0.00,,,0.00,0,Wunderground v.1.15,2013-05-28 01:06:00,
2013-05-27 21:11:00,75.8,62.8,30.01,SE,133,0.0,0.0,64,0.00,,,0.00,0,Wunderground v.1.15,2013-05-28 01:11:00,
2013-05-27 21:16:00,75.7,62.7,30.01,SE,127,0.0,0.0,64,0.00,,,0.00,0,Wunderground v.1.15,2013-05-28 01:16:00,
2013-05-27 21:21:00,75.6,62.6,30.02,ESE,116,0.0,0.0,64,0.00,,,0.00,0,Wunderground v.1.15,2013-05-28 01:21:00,
2013-05-27 21:26:00,75.4,62.8,30.01,ESE,110,0.0,0.0,65,0.00,,,0.00,0,Wunderground v.1.15,2013-05-28 01:26:00,
2013-05-27 21:31:00,75.3,63.2,30.02,SE,127,1.0,1.0,66,0.00,,,0.00,0,Wunderground v.1.15,2013-05-28 01:31:00,
2013-05-27 21:36:00,75.1,63.8,30.02,SE,133,0.0,2.0,68,0.00,,,0.00,0,Wunderground v.1.15,2013-05-28 01:36:00,
2013-05-27 21:41:00,74.9,63.6,30.02,SE,133,0.0,0.0,68,0.00,,,0.00,0,Wunderground v.1.15,2013-05-28 01:41:00,
2013-05-27 21:46:00,74.6,63.8,30.02,SE,136,0.0,1.0,69,0.00,,,0.00,0,Wunderground v.1.15,2013-05-28 01:46:00,
2013-05-27 21:51:00,74.3,63.5,30.02,SE,129,1.0,1.0,69,0.00,,,0.00,0,Wunderground v.1.15,2013-05-28 01:51:00,
2013-05-27 21:56:00,74.0,63.2,30.02,SE,130,0.0,1.0,69,0.00,,,0.00,0,Wunderground v.1.15,2013-05-28 01:56:00,
2013-05-27 22:03:00,73.6,62.8,30.02,SE,142,0.0,0.0,69,0.00,,,0.00,0,Wunderground v.1.15,2013-05-28 02:03:00,
2013-05-27 22:08:00,73.4,62.6,30.02,SE,140,0.0,0.0,69,0.00,,,0.00,0,Wunderground v.1.15,2013-05-28 02:08:00,
2013-05-27 22:13:00,73.2,62.8,30.02,SE,139,0.0,0.0,70,0.00,,,0.00,0,Wunderground v.1.15,2013-05-28 02:13:00,
2013-05-27 22:18:00,73.0,63.8,30.03,SE,143,0.0,1.0,73,0.00,,,0.00,0,Wunderground v.1.15,2013-05-28 02:18:00,
2013-05-27 22:23:00,72.8,63.6,30.03,SE,142,0.0,1.0,73,0.00,,,0.00,0,Wunderground v.1.15,2013-05-28 02:23:00,
2013-05-27 22:28:00,72.8,62.8,30.03,SSE,165,2.0,2.0,71,0.00,,,0.00,0,Wunderground v.1.15,2013-05-28 02:28:00,
2013-05-27 22:33:00,72.8,62.4,30.02,SSE,165,0.0,3.0,70,0.00,,,0.00,0,Wunderground v.1.15,2013-05-28 02:33:00,
2013-05-27 22:38:00,72.8,61.6,30.02,SSE,164,0.0,3.0,68,0.00,,,0.00,0,Wunderground v.1.15,2013-05-28 02:38:00,
2013-05-27 22:43:00,72.9,61.3,30.02,SSE,163,1.0,2.0,67,0.00,,,0.00,0,Wunderground v.1.15,2013-05-28 02:43:00,
2013-05-27 22:48:00,73.0,61.4,30.02,SSE,160,0.0,2.0,67,0.00,,,0.00,0,Wunderground v.1.15,2013-05-28 02:48:00,
2013-05-27 22:53:00,72.9,61.7,30.02,SSE,159,0.0,0.0,68,0.00,,,0.00,0,Wunderground v.1.15,2013-05-28 02:53:00,
2013-05-27 22:58:00,72.7,61.9,30.03,South,171,1.0,1.0,69,0.00,,,0.00,0,Wunderground v.1.15,2013-05-28 02:58:00,
2013-05-27 23:03:00,72.4,62.1,30.03,South,170,0.0,1.0,70,0.00,,,0.00,0,Wunderground v.1.15,2013-05-28 03:03:00,
2013-05-27 23:08:00,72.1,61.8,30.03,SSE,164,0.0,0.0,70,0.00,,,0.00,0,Wunderground v.1.15,2013-05-28 03:08:00,
2013-05-27 23:13:00,71.7,61.8,30.02,SE,129,1.0,2.0,71,0.00,,,0.00,0,Wunderground v.1.15,2013-05-28 03:13:00,
2013-05-27 23:18:00,71.4,61.9,30.02,SE,130,1.0,1.0,72,0.00,,,0.00,0,Wunderground v.1.15,2013-05-28 03:18:00,
2013-05-27 23:23:00,71.1,61.6,30.02,SE,128,0.0,1.0,72,0.00,,,0.00,0,Wunderground v.1.15,2013-05-28 03:23:00,
2013-05-27 23:28:00,70.9,61.8,30.02,SE,129,0.0,0.0,73,0.00,,,0.00,0,Wunderground v.1.15,2013-05-28 03:28:00,
2013-05-27 23:34:00,70.6,61.5,30.03,SE,129,0.0,0.0,73,0.00,,,0.00,0,Wunderground v.1.15,2013-05-28 03:34:00,
2013-05-27 23:39:00,70.5,61.4,30.03,SE,128,0.0,0.0,73,0.00,,,0.00,0,Wunderground v.1.15,2013-05-28 03:39:00,
2013-05-27 23:44:00,70.3,61.6,30.03,SE,130,0.0,0.0,74,0.00,,,0.00,0,Wunderground v.1.15,2013-05-28 03:44:00,
2013-05-27 23:49:00,70.1,61.8,30.03,SE,139,0.0,0.0,75,0.00,,,0.00,0,Wunderground v.1.15,2013-05-28 03:49:00,
2013-05-27 23:54:00,70.0,62.1,30.02,SE,127,0.0,0.0,76,0.00,,,0.00,0,Wunderground v.1.15,2013-05-28 03:54:00,